User: anonymous   Login
Location: Unspecified
(0.0000°N, 0.0000°E)
Time: 21:09:36
(UTC+02:00)
Language:

ARIANE 5 R/B - Orbit

View from above orbital plane
View from above orbital plane
View from above satellite
View from above satellite

Ground track
Ground track

The orbit data is extracted from the following two-line orbital elements,

1 27387U 02009B   16178.48429816  .00000003  00000-0  15625-4 0  9999
2 27387  98.4160 129.3602 0033462 117.9408 242.5172 14.35900888750492
Epoch (UTC): 26 June 2016 11:37:23
Eccentricity: 0.0033462
inclination: 98.4160°
perigee height: 748 km
apogee height: 796 km
right ascension of ascending node: 129.3602°
argument of perigee: 117.9408°
revolutions per day: 14.35900888
mean anomaly at epoch: 242.5172°
orbit number at epoch: 75049

The dashed part of the orbit path shows where the satellite is in the earth's shadow,  

DLR